2024-247Z

Last updated on Wed Jan 15 2025 00:02:05 GMT+0000 (Coordinated Universal Time)

1 62400U 24247Z 25013.80398422 .00007382 00000+0 35395-3 0 9995 2 62400 44.9930 235.1793 0003460 130.4377 229.6805 15.19500113 3697
UTC large
Height (km)
Speed (km/s)
/
Latitude / Longitude
Inclination (degrees)
Orbital Period (minutes)
Azimuth
Elevation
Range (km)
Doppler Factor

Next 0 passes for location: London (51.5072 / 0.1276)

Sorry there are no passes over London.